Regional Weather Roundup
Issued by NWS

Home | Current Version | Previous Version | Text Only | Print | Product List | Glossary On
Versions: 1 2 3 4 5 6 7 8 9 10 11 12 13 14 15 16 17 18 19 20 21 22 23 24 25 26 27 28 29 30 31 32 33 34 35 36 37 38 39 40 41 42 43 44 45 46 47 48 49 50
000
ASUS45 KBOI 011710
RWRID

IDAHO REGIONAL WEATHER ROUNDUP
NATIONAL WEATHER SERVICE BOISE ID
1000 AM MST WED MAR 01 2017

NOTE: "FAIR" INDICATES FEW OR NO CLOUDS BELOW 12000 FEET
WITH NO SIGNIFICANT WEATHER AND/OR OBSTRUCTIONS TO VISIBILITY

IDZ012-014-011800-
SOUTHWEST IDAHO


CITY           SKY/WX    TMP DP  RH WIND       PRES   REMARKS
BOISE          MOSUNNY   37  24  59 E7        30.42R WCI  32
CALDWELL       SUNNY     40  27  59 NE6       30.44R
MOUNTAIN HOME  MOSUNNY   40  25  55 CALM      30.43R
$$

IDZ016-017-011800-
SOUTHCENTRAL IDAHO


CITY           SKY/WX    TMP DP  RH WIND       PRES   REMARKS
BURLEY         CLOUDY    36  22  56 MISG      30.38R
JEROME         SUNNY     31  23  72 SW8       30.40R WCI  23
TWIN FALLS     SUNNY     32  20  61 SW14      30.40R WCI  22
$$

IDZ019>023-011800-
SOUTHEAST IDAHO


CITY           SKY/WX    TMP DP  RH WIND       PRES   REMARKS
IDAHO FALLS    CLOUDY    18  18 100 CALM      30.34R
POCATELLO      CLOUDY    31  23  72 SW18      30.37R WCI  19
REXBURG        CLOUDY    20  17  88 SW10      30.33R WCI   9
$$

IDZ006-010-011-018-031-032-011800-
CENTRAL IDAHO MOUNTAINS


CITY           SKY/WX    TMP DP  RH WIND       PRES   REMARKS
MCCALL         NOT AVBL
HAILEY         MOSUNNY   21  10  63 NW9       30.34R WCI  11
STANLEY          N/A     26  15  63 S12       30.25S WCI  16
SALMON         CLOUDY    37  16  41 S18       30.22R WCI  27
CHALLIS        MOSUNNY   32  17  54 S12       30.23S WCI  23
$$

IDZ002-004-006-007-026-011800-
NORTHERN IDAHO


CITY           SKY/WX    TMP DP  RH WIND       PRES   REMARKS
LEWISTON       CLOUDY    38  29  70 NW5       30.28R WCI  34
LOWELL           N/A     32  28  85 CALM      30.35R
COEUR D`ALENE  FLURRIES  34  29  82 W14       30.20R WCI  25
MULLAN PASS    SNOW      21  21 100 W8        30.03R VSB 1/2 WCI  11
$$



USA.gov is the U.S. government's official web portal to all federal, state and local government web resources and services.